Location: Pittsburgh
(40.4410°N, 79.9960°W)
Time: 16:20:51
(UTC-04:00)

ARIANE 6 FM1 Upper Stage - Pass Details

Date: 19 March 2026
Orbit: 524 x 604 km, 62.0° (Epoch: 11 April)

Event Time Altitude Azimuth Distance (km) Brightness Sun altitude
Exits shadow 05:09:52 12° 348° (NNW) 1,667 5.2 -25.9°
Drops below altitude 10° 05:10:33 10° 357° (N) 1,794 5.4 -25.8°
Sets 05:13:38 0° 22° (NNE) 2,676 6.8 -25.2°
